Regional Weather Roundup
Issued by NWS Lake Charles, LA

Home | Current Version | Previous Version | Text Only | Print | Product List | Glossary On
Versions: 1 2 3 4 5 6 7 8 9 10 11 12 13 14 15 16 17 18 19 20 21 22 23 24 25 26 27
000
ASUS44 KLCH 201410
RWRLCH
REGIONAL WEATHER ROUNDUP
NATIONAL WEATHER SERVICE LAKE CHARLES LA
800 AM CST MON FEB 20 2017

Note: "fair" indicates few or no clouds below 12,000 feet with no
significant weather and/or obstructions to visibility.


ACROSS SOUTHEAST TEXAS

CITY           SKY/WX    TMP DP  RH WIND       PRES   REMARKS
BEAUMONT       CLOUDY    71  67  87 E6        30.00R
BEAUMONT CITY  PTSUNNY   73  68  84 SE8       29.99F
ORANGE         CLOUDY    71  68  91 E6        30.02R
JASPER         CLOUDY    68  67  96 CALM      30.03R
$$

ACROSS CENTRAL LOUISIANA

CITY           SKY/WX    TMP DP  RH WIND       PRES   REMARKS
LEESVILLE      MOSUNNY   69  66  92 SE8       30.01R
FULLERTON      PTSUNNY   70  66  87 CALM      29.99R
ALEXANDRIA INT CLOUDY    68  65  90 E5        30.02R
ESLER FIELD    CLOUDY    69  66  90 CALM      30.04R
DERIDDER       FAIR      68  67  95 E5        30.03R
OAKDALE        CLOUDY    69  67  92 CALM      30.03R
OPELOUSAS      CLOUDY    70  66  87 MISG      30.03R
$$

ACROSS SOUTHWEST AND SOUTH CENTRAL LOUISIANA

CITY           SKY/WX    TMP DP  RH WIND       PRES   REMARKS
SULPHUR        CLOUDY    72  68  89 SE10      30.02R
LAKE CHARLES   LGT RAIN  71  68  90 SE9       30.01R
CHENNAULT INT  CLOUDY    70  68  94 E8        30.02R
CAMERON PHI    PTSUNNY   68  68 100 SE10      29.99R FOG
DEQUINCY       CLOUDY    68  66  93 CALM      30.01R
JENNINGS       CLOUDY    69  67  91 S7        30.03R
LAFAYETTE      MOSUNNY   74  68  81 SE6       30.01R
NEW IBERIA     PTSUNNY   72  66  81 SE12      30.02R
ABBEVILLE      CLOUDY    70  70 100 SE10G20   30.02R
PATTERSON      CLOUDY    71  68  90 SE9G16    30.03R
SALT POINT       N/A     69  68  96 SE9       30.00R
$$

SELECTED SITES ACROSS THE REGION

CITY           SKY/WX    TMP DP  RH WIND       PRES   REMARKS
HOUSTON BUSH   LGT RAIN  62  60  93 N9        30.01R FOG
HOUSTON HOBBY  LGT RAIN  63  60  90 N17       30.00R
GALVESTON      CLOUDY    71  68  90 W5        29.98R FOG
COLLEGE STAT   HVY RAIN  58  58 100 NE10      30.00R FOG
CONROE         HVY RAIN  59  58  96 NE6       30.03R FOG
HUNTSVILLE     HVY RAIN  59  57  93 NE7       30.02S FOG
LUFKIN         LGT RAIN  58  56  93 NW8       30.05R
SHREVEPORT     CLOUDY    62  58  86 NE5       30.01R
MONROE         CLOUDY    65  62  90 SE3       30.05R
NATCHEZ MS     CLOUDY    63  61  94 SE3       30.06R
BATON ROUGE    CLOUDY    69  66  90 SE6       30.04R
N.O. INTL ARPT PTSUNNY   70  67  90 SE15      30.03S
SLIDELL        CLOUDY    65  63  93 SE6       30.06R
$$

MARINE REPORTS

STATION/POSITION TIME  SKY/WX   TEMP    WIND        PRES    VSBY
                                AIR SEA DIR/SP/G
                 (UTC)          (F)     (DEG/KT/KT) (MB)    (MI)
BUOY 30 S HIGH I 1350            66 65   80/  4/  6 1014.3R
WVE H/P(F/S)=  5/ 7

SEA RIM ST PARK  1400            68      80/  5/  6 1016.1R
PORT ARTHUR      1348               66   20/  2/  3 1016.0R
SABINE PASS N    1348            69 68   CALM  /  7 1016.8R
TEXAS POINT      NOT AVBL
CALCASIEU PASS   1348            67 66  120/  9/ 12   N/A
LK CHARLES BEACH 1348            69 64              1016.7R
MARSH ISLAND     1300            66                   N/A
FRESH WATER LOCK 1348            67 66  110/ 11/ 14 1016.5R
AMERADA PASS     1348            69 56  110/  6/ 11 1016.1R
$$




USA.gov is the U.S. government's official web portal to all federal, state and local government web resources and services.